RYR792 LHBP-LRCL

Flight info

Callsign RYR792
Flight time 0h 34m
Altitude 29000
Route VETIK DCT UVERA DCT RILAS DCT LARMU
Aircraft B38M/M-SDE1FGHILORVWXY/HB1

Departure

Time 2026-05-04 20:43
Airport Budapest Liszt Ferenc International Airport (LHBP)

Arrival

Time 2026-05-04 21:18
Airport Avram Iancu Cluj International Airport (LRCL)
Time Latitude Longitude Altitude Speed Heading
2026-05-04 19:55 47.43511 19.26479 460 ft 0 kts 222°
2026-05-04 20:37 47.43517 19.26486 459 ft 4 kts 225°
2026-05-04 20:37 47.43533 19.26517 460 ft 4 kts 247°
2026-05-04 20:38 47.43536 19.26553 460 ft 4 kts 290°
2026-05-04 20:38 47.43530 19.26569 456 ft 0 kts 312°
2026-05-04 20:41 47.43544 19.26547 460 ft 7 kts 312°
2026-05-04 20:41 47.43592 19.26466 460 ft 12 kts 311°
2026-05-04 20:41 47.43652 19.26365 460 ft 14 kts 314°
2026-05-04 20:41 47.43732 19.26389 459 ft 14 kts 42°
2026-05-04 20:42 47.43813 19.26380 460 ft 14 kts 308°
2026-05-04 20:42 47.43877 19.26263 460 ft 16 kts 310°
2026-05-04 20:42 47.43972 19.26230 461 ft 16 kts 36°
2026-05-04 20:42 47.44060 19.26364 470 ft 21 kts 63°
2026-05-04 20:43 47.44019 19.26609 469 ft 35 kts 131°
2026-05-04 20:43 47.43720 19.27092 475 ft 103 kts 133°
2026-05-04 20:43 47.43058 19.28154 459 ft 175 kts 132°
2026-05-04 20:43 47.42183 19.29531 1256 ft 182 kts 136°
2026-05-04 20:44 47.41312 19.30914 2348 ft 189 kts 134°
2026-05-04 20:44 47.40520 19.32560 3248 ft 205 kts 124°
2026-05-04 20:44 47.39876 19.34561 4079 ft 224 kts 113°
2026-05-04 20:44 47.39361 19.36696 5075 ft 232 kts 110°
2026-05-04 20:45 47.38930 19.39055 6037 ft 243 kts 105°
2026-05-04 20:45 47.38537 19.41515 7016 ft 248 kts 105°
2026-05-04 20:45 47.38143 19.44023 8001 ft 254 kts 102°
2026-05-04 20:45 47.37994 19.46652 9009 ft 259 kts 92°
2026-05-04 20:46 47.38018 19.49327 10043 ft 262 kts 91°
2026-05-04 20:46 47.38059 19.52018 11003 ft 262 kts 90°
2026-05-04 20:46 47.38022 19.54694 11977 ft 258 kts 100°
2026-05-04 20:46 47.37676 19.57264 12965 ft 254 kts 105°
2026-05-04 20:47 47.37261 19.59777 13779 ft 257 kts 105°
2026-05-04 20:47 47.36818 19.62383 14506 ft 259 kts 105°
2026-05-04 20:47 47.36377 19.64929 15228 ft 260 kts 105°
2026-05-04 20:47 47.35921 19.67511 15950 ft 260 kts 105°
2026-05-04 20:48 47.35449 19.70150 16328 ft 278 kts 105°
2026-05-04 20:48 47.34934 19.73010 16530 ft 300 kts 105°
2026-05-04 20:48 47.34373 19.76096 16726 ft 323 kts 105°
2026-05-04 20:48 47.33766 19.79403 16912 ft 346 kts 105°
2026-05-04 20:49 47.33111 19.82932 17100 ft 368 kts 105°
2026-05-04 20:49 47.32408 19.86689 17288 ft 390 kts 105°
2026-05-04 20:49 47.31663 19.90644 17479 ft 410 kts 105°
2026-05-04 20:49 47.30886 19.94742 18110 ft 418 kts 105°
2026-05-04 20:50 47.30080 19.98923 18547 ft 429 kts 105°
2026-05-04 20:50 47.29251 20.03200 18995 ft 438 kts 105°
2026-05-04 20:50 47.28406 20.07555 19466 ft 446 kts 104°
2026-05-04 20:50 47.27837 20.12068 19906 ft 453 kts 95°
2026-05-04 20:51 47.27571 20.16724 20357 ft 459 kts 94°
2026-05-04 20:51 47.27332 20.21352 21398 ft 448 kts 94°
2026-05-04 20:51 47.27096 20.25802 22535 ft 436 kts 94°
2026-05-04 20:51 47.26906 20.30195 23718 ft 423 kts 92°
2026-05-04 20:52 47.26764 20.34519 24196 ft 426 kts 92°
2026-05-04 20:52 47.26616 20.38922 24419 ft 434 kts 92°
2026-05-04 20:52 47.26461 20.43410 24628 ft 443 kts 92°
2026-05-04 20:52 47.26300 20.48013 24628 ft 457 kts 92°
2026-05-04 20:53 47.26134 20.52757 24612 ft 471 kts 92°
2026-05-04 20:53 47.25963 20.57643 24580 ft 484 kts 92°
2026-05-04 20:53 47.25787 20.62628 24928 ft 484 kts 92°
2026-05-04 20:53 47.25603 20.67500 25975 ft 471 kts 92°
2026-05-04 20:54 47.25407 20.72247 27015 ft 457 kts 92°
2026-05-04 20:54 47.25200 20.76842 28096 ft 443 kts 92°
2026-05-04 20:54 47.24982 20.81283 29124 ft 431 kts 92°
2026-05-04 20:54 47.24754 20.85721 29232 ft 439 kts 92°
2026-05-04 20:55 47.24289 20.94831 29390 ft 455 kts 92°
2026-05-04 20:55 47.23810 21.04284 29523 ft 471 kts 92°
2026-05-04 20:56 47.23317 21.14029 29659 ft 484 kts 92°
2026-05-04 20:56 47.22812 21.23980 29922 ft 488 kts 92°
2026-05-04 20:57 47.22558 21.28776 31013 ft 467 kts 92°
2026-05-04 20:57 47.22298 21.33518 32072 ft 450 kts 92°
2026-05-04 20:57 47.22048 21.37961 32989 ft 435 kts 92°
2026-05-04 20:57 47.21794 21.42336 33818 ft 422 kts 92°
2026-05-04 20:58 47.21540 21.46604 34263 ft 418 kts 92°
2026-05-04 20:58 47.21284 21.50887 34304 ft 423 kts 92°
2026-05-04 20:58 47.20762 21.59595 34360 ft 433 kts 92°
2026-05-04 20:59 47.20223 21.68530 34406 ft 443 kts 92°
2026-05-04 20:59 47.19672 21.77669 34430 ft 454 kts 92°
2026-05-04 21:00 47.19388 21.82359 33913 ft 462 kts 92°
2026-05-04 21:00 47.19097 21.87049 33278 ft 458 kts 92°
2026-05-04 21:00 47.18811 21.91625 32615 ft 456 kts 92°
2026-05-04 21:00 47.18517 21.96255 31964 ft 454 kts 92°
2026-05-04 21:01 47.18222 22.00863 31308 ft 453 kts 92°
2026-05-04 21:01 47.17926 22.05471 30566 ft 454 kts 92°
2026-05-04 21:01 47.17634 22.10037 29711 ft 456 kts 92°
2026-05-04 21:01 47.17347 22.14713 28529 ft 463 kts 92°
2026-05-04 21:02 47.17074 22.19452 27428 ft 468 kts 92°
2026-05-04 21:02 47.16815 22.24250 26359 ft 472 kts 92°
2026-05-04 21:02 47.16571 22.29072 25348 ft 475 kts 92°
2026-05-04 21:02 47.16340 22.33932 24372 ft 477 kts 92°
2026-05-04 21:03 47.16121 22.38808 23374 ft 479 kts 92°
2026-05-04 21:03 47.15909 22.43693 22271 ft 479 kts 92°
2026-05-04 21:03 47.15608 22.48560 21220 ft 477 kts 99°
2026-05-04 21:03 47.14674 22.53199 20241 ft 471 kts 108°
2026-05-04 21:04 47.13656 22.57734 19272 ft 463 kts 106°
2026-05-04 21:04 47.12694 22.62203 18319 ft 455 kts 106°
2026-05-04 21:04 47.11762 22.66605 17267 ft 447 kts 105°
2026-05-04 21:04 47.10853 22.70927 16297 ft 439 kts 105°
2026-05-04 21:05 47.09964 22.75154 15586 ft 430 kts 105°
2026-05-04 21:05 47.09087 22.79322 14864 ft 424 kts 105°
2026-05-04 21:05 47.08221 22.83432 14165 ft 419 kts 105°
2026-05-04 21:05 47.07364 22.87491 13425 ft 414 kts 106°
2026-05-04 21:06 47.06517 22.91494 12652 ft 409 kts 106°
2026-05-04 21:06 47.05680 22.95447 11913 ft 404 kts 106°
2026-05-04 21:06 47.04858 22.99316 11210 ft 400 kts 106°
2026-05-04 21:06 47.04033 23.03194 10520 ft 396 kts 107°
2026-05-04 21:07 47.03222 23.06997 10283 ft 384 kts 107°
2026-05-04 21:07 47.02439 23.10666 10164 ft 370 kts 107°
2026-05-04 21:07 47.01682 23.14200 10046 ft 357 kts 107°
2026-05-04 21:07 47.00931 23.17710 9865 ft 378 kts 107°
2026-05-04 21:08 47.00139 23.21402 9670 ft 378 kts 107°
2026-05-04 21:08 46.99344 23.25105 9501 ft 385 kts 107°
2026-05-04 21:08 46.98549 23.28794 9346 ft 373 kts 107°
2026-05-04 21:08 46.97778 23.32365 9113 ft 363 kts 107°
2026-05-04 21:09 46.97012 23.35911 8853 ft 370 kts 107°
2026-05-04 21:09 46.96232 23.39516 8588 ft 371 kts 107°
2026-05-04 21:09 46.95452 23.43113 8339 ft 371 kts 107°
2026-05-04 21:09 46.94685 23.46753 8080 ft 375 kts 103°
2026-05-04 21:10 46.94402 23.50529 7825 ft 375 kts 89°
2026-05-04 21:10 46.94378 23.54352 7589 ft 375 kts 91°
2026-05-04 21:10 46.94326 23.58159 7347 ft 374 kts 91°
2026-05-04 21:10 46.94259 23.61962 7146 ft 374 kts 91°
2026-05-04 21:11 46.94184 23.65773 7096 ft 374 kts 91°
2026-05-04 21:11 46.94105 23.69571 7099 ft 374 kts 91°
2026-05-04 21:11 46.94024 23.73382 7103 ft 374 kts 91°
2026-05-04 21:11 46.93941 23.77190 7097 ft 374 kts 91°
2026-05-04 21:12 46.93857 23.80939 7101 ft 374 kts 91°
2026-05-04 21:12 46.93560 23.84716 7048 ft 374 kts 106°
2026-05-04 21:12 46.92332 23.87964 7032 ft 360 kts 132°
2026-05-04 21:12 46.90340 23.89992 7032 ft 345 kts 159°
2026-05-04 21:13 46.88087 23.90952 7038 ft 329 kts 162°
2026-05-04 21:13 46.85948 23.91925 7029 ft 315 kts 162°
2026-05-04 21:13 46.83915 23.92871 7014 ft 301 kts 161°
2026-05-04 21:13 46.81966 23.93798 6994 ft 288 kts 161°
2026-05-04 21:14 46.80084 23.94602 6966 ft 275 kts 172°
2026-05-04 21:14 46.78272 23.94224 6946 ft 260 kts 207°
2026-05-04 21:14 46.77019 23.92505 6914 ft 243 kts 244°
2026-05-04 21:14 46.76768 23.90245 6864 ft 222 kts 283°
2026-05-04 21:15 46.77493 23.88476 6825 ft 197 kts 320°
2026-05-04 21:15 46.78580 23.87257 6706 ft 192 kts 324°
2026-05-04 21:15 46.79538 23.86047 6385 ft 176 kts 304°
2026-05-04 21:15 46.80026 23.84402 5848 ft 180 kts 289°
2026-05-04 21:16 46.80414 23.82575 4912 ft 199 kts 288°
2026-05-04 21:16 46.80816 23.80569 3909 ft 211 kts 288°
2026-05-04 21:16 46.80949 23.78484 3432 ft 199 kts 263°
2026-05-04 21:16 46.80576 23.76689 3331 ft 173 kts 254°
2026-05-04 21:17 46.80211 23.75073 2874 ft 168 kts 258°
2026-05-04 21:17 46.79867 23.73357 1805 ft 187 kts 253°
2026-05-04 21:17 46.79577 23.72140 1228 ft 189 kts 249°
2026-05-04 21:17 46.79207 23.70502 1112 ft 153 kts 253°
2026-05-04 21:18 46.78908 23.69154 1045 ft 126 kts 257°
2026-05-04 21:18 46.78660 23.68041 1045 ft 106 kts 251°
2026-05-04 21:18 46.78501 23.67349 1045 ft 27 kts 251°
2026-05-04 21:18 46.78367 23.67256 1045 ft 28 kts 128°
2026-05-04 21:19 46.78389 23.67556 1045 ft 33 kts 69°
2026-05-04 21:19 46.78395 23.67583 1045 ft 33 kts 71°